Station Historical Data
Daily Summary for July 9, 2017 Units:  English    Metric   Both
« Previous Day
Next Day »
Daily Weekly Monthly Yearly Custom
  High: Low: Average:
Temperature: 78.5 °F 57.3 °F 70 °F
Dew Point: 61.8 °F 46.7 °F 55.6 °F
Humidity: 77% 45% 61%
Wind Speed: 23.0mph 0.0mph 5.4mph
Wind Gust: 24.0mph - -
Wind- - WSW
Pressure: 30.00 in 29.92 in -
Precipitation: 0.00 in    
Historical Graphs
 
 
Tabular Data for July 9, 2017
Time Temperature Dew Point Pressure Wind Wind Speed Wind Gust Humidity Rainfall Rate (Hourly)
00:04 63.9 °F 49.7 °F 29.92 in WNW 1.0 mph 4.0 mph 60% 0.00 in
00:09 63.8 °F 49.6 °F 29.92 in West 1.0 mph 3.0 mph 60% 0.00 in
00:14 63.7 °F 49.5 °F 29.92 in West 2.0 mph 3.0 mph 60% 0.00 in
00:19 63.4 °F 49.7 °F 29.93 in West 1.0 mph 3.0 mph 61% 0.00 in
00:24 63.2 °F 49.5 °F 29.93 in West 1.0 mph 3.0 mph 61% 0.00 in
00:29 63.0 °F 49.3 °F 29.93 in WNW 1.0 mph 4.0 mph 61% 0.00 in
00:34 62.9 °F 49.2 °F 29.93 in WNW 2.0 mph 5.0 mph 61% 0.00 in
00:39 62.9 °F 49.2 °F 29.93 in NW 2.0 mph 4.0 mph 61% 0.00 in
00:44 62.9 °F 49.2 °F 29.93 in West 1.0 mph 4.0 mph 61% 0.00 in
00:49 63.0 °F 49.3 °F 29.94 in WNW 2.0 mph 4.0 mph 61% 0.00 in
00:54 62.9 °F 49.7 °F 29.94 in WSW 1.0 mph 3.0 mph 62% 0.00 in
00:59 62.8 °F 49.6 °F 29.93 in West 1.0 mph 4.0 mph 62% 0.00 in
01:05 62.7 °F 49.5 °F 29.94 in West 2.0 mph 4.0 mph 62% 0.00 in
01:10 62.3 °F 49.1 °F 29.94 in West 2.0 mph 5.0 mph 62% 0.00 in
01:15 62.2 °F 49.0 °F 29.94 in West 4.0 mph 4.0 mph 62% 0.00 in
01:20 62.1 °F 48.9 °F 29.94 in West 4.0 mph 4.0 mph 62% 0.00 in
01:25 62.0 °F 48.8 °F 29.93 in West 2.0 mph 6.0 mph 62% 0.00 in
01:30 61.9 °F 48.7 °F 29.93 in West 3.0 mph 6.0 mph 62% 0.00 in
01:35 61.7 °F 48.5 °F 29.93 in West 2.0 mph 5.0 mph 62% 0.00 in
01:40 61.6 °F 48.4 °F 29.93 in West 2.0 mph 5.0 mph 62% 0.00 in
01:45 61.4 °F 48.3 °F 29.94 in WNW 3.0 mph 7.0 mph 62% 0.00 in
01:50 61.5 °F 47.9 °F 29.94 in West 3.0 mph 7.0 mph 61% 0.00 in
01:55 61.5 °F 47.9 °F 29.94 in West 3.0 mph 7.0 mph 61% 0.00 in
02:00 61.4 °F 47.8 °F 29.94 in West 3.0 mph 5.0 mph 61% 0.00 in
02:05 61.2 °F 47.6 °F 29.94 in West 2.0 mph 5.0 mph 61% 0.00 in
02:10 61.0 °F 47.4 °F 29.94 in West 1.0 mph 3.0 mph 61% 0.00 in
02:15 60.9 °F 47.4 °F 29.94 in West 1.0 mph 4.0 mph 61% 0.00 in
02:20 60.8 °F 47.3 °F 29.94 in West 2.0 mph 4.0 mph 61% 0.00 in
02:25 60.8 °F 47.3 °F 29.94 in West 1.0 mph 4.0 mph 61% 0.00 in
02:30 60.8 °F 46.8 °F 29.94 in Calm   3.0 mph 60% 0.00 in
02:35 60.7 °F 47.2 °F 29.94 in Calm     61% 0.00 in
02:40 60.5 °F 47.0 °F 29.94 in Calm     61% 0.00 in
02:45 60.4 °F 46.9 °F 29.94 in Calm     61% 0.00 in
02:50 60.0 °F 46.9 °F 29.94 in Calm     62% 0.00 in
02:55 60.3 °F 47.2 °F 29.94 in West 2.0 mph 3.0 mph 62% 0.00 in
03:00 60.6 °F 47.1 °F 29.94 in West 1.0 mph 4.0 mph 61% 0.00 in
03:05 60.6 °F 47.1 °F 29.94 in Calm   3.0 mph 61% 0.00 in
03:10 60.6 °F 47.1 °F 29.94 in West 3.0 mph 4.0 mph 61% 0.00 in
03:15 60.8 °F 47.3 °F 29.94 in West 3.0 mph 5.0 mph 61% 0.00 in
03:20 61.1 °F 47.5 °F 29.94 in West 3.0 mph 6.0 mph 61% 0.00 in
03:25 61.3 °F 47.7 °F 29.94 in West 3.0 mph 6.0 mph 61% 0.00 in
03:30 61.3 °F 47.3 °F 29.94 in West 3.0 mph 5.0 mph 60% 0.00 in
03:35 61.2 °F 47.2 °F 29.94 in West 2.0 mph 5.0 mph 60% 0.00 in
03:40 61.3 °F 47.3 °F 29.94 in West 2.0 mph 6.0 mph 60% 0.00 in
03:45 61.2 °F 47.2 °F 29.94 in West 2.0 mph 5.0 mph 60% 0.00 in
03:50 61.2 °F 47.2 °F 29.94 in WNW 1.0 mph 4.0 mph 60% 0.00 in
03:55 61.2 °F 47.2 °F 29.94 in West 3.0 mph 3.0 mph 60% 0.00 in
04:00 60.8 °F 46.8 °F 29.94 in Calm   3.0 mph 60% 0.00 in
04:05 60.5 °F 47.0 °F 29.94 in West 1.0 mph 3.0 mph 61% 0.00 in
04:10 60.7 °F 47.2 °F 29.94 in West 1.0 mph 3.0 mph 61% 0.00 in
04:15 60.6 °F 47.1 °F 29.94 in Calm   3.0 mph 61% 0.00 in
04:20 60.2 °F 47.1 °F 29.94 in Calm   3.0 mph 62% 0.00 in
04:25 59.5 °F 46.9 °F 29.94 in Calm     63% 0.00 in
04:30 59.0 °F 46.8 °F 29.94 in Calm     64% 0.00 in
04:35 58.6 °F 46.9 °F 29.94 in Calm     65% 0.00 in
04:40 58.4 °F 46.7 °F 29.94 in Calm     65% 0.00 in
04:45 58.3 °F 47.0 °F 29.94 in Calm     66% 0.00 in
04:50 58.1 °F 47.2 °F 29.94 in Calm     67% 0.00 in
04:55 57.8 °F 46.9 °F 29.94 in Calm     67% 0.00 in
05:00 57.5 °F 47.0 °F 29.94 in Calm     68% 0.00 in
05:05 57.5 °F 47.4 °F 29.95 in Calm     69% 0.00 in
05:10 57.8 °F 48.5 °F 29.94 in Calm     71% 0.00 in
05:15 57.9 °F 49.3 °F 29.94 in Calm     73% 0.00 in
05:20 57.7 °F 49.8 °F 29.95 in Calm     75% 0.00 in
05:25 57.5 °F 50.0 °F 29.95 in Calm     76% 0.00 in
05:30 57.3 °F 50.1 °F 29.95 in Calm     77% 0.00 in
05:35 57.3 °F 50.1 °F 29.95 in Calm     77% 0.00 in
05:40 57.3 °F 50.1 °F 29.95 in Calm     77% 0.00 in
05:45 57.6 °F 50.4 °F 29.95 in Calm     77% 0.00 in
05:49 57.7 °F 50.5 °F 29.95 in Calm     77% 0.00 in
05:55 58.0 °F 50.8 °F 29.95 in Calm     77% 0.00 in
06:00 58.0 °F 50.8 °F 29.95 in Calm     77% 0.00 in
06:05 58.1 °F 50.9 °F 29.95 in Calm     77% 0.00 in
06:10 58.2 °F 51.0 °F 29.95 in Calm     77% 0.00 in
06:15 58.2 °F 51.0 °F 29.95 in Calm     77% 0.00 in
06:20 58.4 °F 51.2 °F 29.95 in Calm     77% 0.00 in
06:24 58.7 °F 51.5 °F 29.96 in Calm     77% 0.00 in
06:30 59.2 °F 52.0 °F 29.96 in Calm     77% 0.00 in
06:35 59.8 °F 52.6 °F 29.96 in Calm     77% 0.00 in
06:40 60.6 °F 53.3 °F 29.96 in Calm   4.0 mph 77% 0.00 in
06:45 61.2 °F 53.6 °F 29.96 in Calm   7.0 mph 76% 0.00 in
06:50 61.9 °F 54.2 °F 29.97 in SSW 1.0 mph 4.0 mph 76% 0.00 in
06:55 62.7 °F 54.7 °F 29.97 in SSW 2.0 mph 5.0 mph 75% 0.00 in
07:00 63.6 °F 55.5 °F 29.97 in SSW 2.0 mph 6.0 mph 75% 0.00 in
07:05 64.0 °F 55.9 °F 29.97 in SSW 2.0 mph 7.0 mph 75% 0.00 in
07:10 64.2 °F 56.1 °F 29.97 in SW 3.0 mph 7.0 mph 75% 0.00 in
07:20 64.7 °F 57.0 °F 29.97 in SSW 3.0 mph 7.0 mph 76% 0.00 in
07:25 65.1 °F 57.0 °F 29.97 in SSW 3.0 mph 7.0 mph 75% 0.00 in
07:30 65.6 °F 57.5 °F 29.97 in SSW 4.0 mph 8.0 mph 75% 0.00 in
07:35 66.1 °F 57.9 °F 29.97 in SSW 5.0 mph 10.0 mph 75% 0.00 in
07:39 66.4 °F 58.2 °F 29.97 in SW 7.0 mph 9.0 mph 75% 0.00 in
07:44 66.7 °F 58.1 °F 29.97 in SSW 5.0 mph 10.0 mph 74% 0.00 in
07:49 66.9 °F 58.3 °F 29.98 in SW 6.0 mph 9.0 mph 74% 0.00 in
07:55 67.3 °F 58.7 °F 29.98 in South 4.0 mph 8.0 mph 74% 0.00 in
08:00 67.7 °F 58.7 °F 29.98 in SW 6.0 mph 13.0 mph 73% 0.00 in
08:05 67.9 °F 59.3 °F 29.98 in WSW 8.0 mph 13.0 mph 74% 0.00 in
08:10 68.3 °F 59.3 °F 29.98 in SSW 3.0 mph 10.0 mph 73% 0.00 in
08:15 68.6 °F 59.6 °F 29.99 in SW 4.0 mph 9.0 mph 73% 0.00 in
08:19 68.9 °F 59.5 °F 29.98 in SSW 4.0 mph 9.0 mph 72% 0.00 in
08:25 69.3 °F 59.9 °F 29.99 in SSW 4.0 mph 11.0 mph 72% 0.00 in
08:30 69.6 °F 60.2 °F 29.99 in WSW 3.0 mph 9.0 mph 72% 0.00 in
08:35 70.1 °F 60.7 °F 29.99 in SW 8.0 mph 12.0 mph 72% 0.00 in
08:40 70.7 °F 60.8 °F 29.99 in SSE 9.0 mph 11.0 mph 71% 0.00 in
08:45 71.1 °F 60.4 °F 29.99 in SSW 6.0 mph 12.0 mph 69% 0.00 in
08:49 71.7 °F 59.7 °F 29.99 in SSW 5.0 mph 12.0 mph 66% 0.00 in
08:55 72.0 °F 59.2 °F 29.99 in WSW 3.0 mph 8.0 mph 64% 0.00 in
09:00 72.6 °F 59.3 °F 29.99 in WSW 4.0 mph 10.0 mph 63% 0.00 in
09:05 72.3 °F 59.4 °F 29.99 in SSW 2.0 mph 9.0 mph 64% 0.00 in
09:10 72.4 °F 58.6 °F 29.99 in West 7.0 mph 9.0 mph 62% 0.00 in
09:15 72.9 °F 59.6 °F 29.99 in SW 4.0 mph 8.0 mph 63% 0.00 in
09:20 73.0 °F 59.7 °F 29.99 in SW 4.0 mph 12.0 mph 63% 0.00 in
09:25 72.9 °F 59.6 °F 29.99 in SW 4.0 mph 12.0 mph 63% 0.00 in
09:30 72.6 °F 58.4 °F 29.99 in WSW 5.0 mph 10.0 mph 61% 0.00 in
09:35 72.9 °F 60.4 °F 29.99 in WSW 5.0 mph 10.0 mph 65% 0.00 in
09:40 73.0 °F 60.1 °F 29.99 in WSW 5.0 mph 11.0 mph 64% 0.00 in
09:45 73.2 °F 60.7 °F 29.99 in WSW 2.0 mph 8.0 mph 65% 0.00 in
09:49 74.0 °F 61.0 °F 29.99 in West 6.0 mph 9.0 mph 64% 0.00 in
09:54 73.9 °F 60.5 °F 29.99 in WSW 7.0 mph 13.0 mph 63% 0.00 in
09:59 74.0 °F 60.2 °F 29.99 in WSW 7.0 mph 13.0 mph 62% 0.00 in
10:05 74.4 °F 60.1 °F 29.99 in SW 6.0 mph 11.0 mph 61% 0.00 in
10:09 74.3 °F 60.0 °F 30.00 in West 7.0 mph 13.0 mph 61% 0.00 in
10:14 74.3 °F 60.0 °F 30.00 in SW 6.0 mph 13.0 mph 61% 0.00 in
10:20 74.7 °F 60.4 °F 30.00 in SW 6.0 mph 13.0 mph 61% 0.00 in
10:25 75.0 °F 60.6 °F 30.00 in SW 6.0 mph 13.0 mph 61% 0.00 in
10:30 75.2 °F 59.9 °F 30.00 in WSW 6.0 mph 12.0 mph 59% 0.00 in
10:35 75.0 °F 59.2 °F 30.00 in WSW 6.0 mph 12.0 mph 58% 0.00 in
10:40 76.1 °F 60.7 °F 30.00 in WSW 6.0 mph 12.0 mph 59% 0.00 in
10:45 75.8 °F 60.4 °F 30.00 in SSW 9.0 mph 15.0 mph 59% 0.00 in
10:49 75.4 °F 60.5 °F 30.00 in WSW 7.0 mph 15.0 mph 60% 0.00 in
10:54 75.0 °F 58.7 °F 30.00 in WNW 12.0 mph 13.0 mph 57% 0.00 in
10:59 75.2 °F 60.4 °F 30.00 in SSE 4.0 mph 11.0 mph 60% 0.00 in
11:04 75.4 °F 60.1 °F 30.00 in SW 10.0 mph 13.0 mph 59% 0.00 in
11:09 74.9 °F 59.1 °F 30.00 in SW 4.0 mph 16.0 mph 58% 0.00 in
11:14 74.6 °F 58.4 °F 30.00 in WSW 11.0 mph 14.0 mph 57% 0.00 in
11:19 74.9 °F 59.6 °F 30.00 in WSW 7.0 mph 14.0 mph 59% 0.00 in
11:24 75.6 °F 59.3 °F 30.00 in WSW 7.0 mph 16.0 mph 57% 0.00 in
11:30 76.3 °F 59.4 °F 30.00 in WSW 7.0 mph 16.0 mph 56% 0.00 in
11:35 76.3 °F 59.9 °F 30.00 in SW 7.0 mph 16.0 mph 57% 0.00 in
11:40 76.9 °F 59.0 °F 30.00 in WSW 9.0 mph 15.0 mph 54% 0.00 in
11:45 77.5 °F 60.1 °F 30.00 in SW 8.0 mph 15.0 mph 55% 0.00 in
11:49 76.9 °F 57.9 °F 30.00 in WSW 8.0 mph 18.0 mph 52% 0.00 in
11:54 76.4 °F 57.5 °F 30.00 in SW 7.0 mph 19.0 mph 52% 0.00 in
12:00 76.7 °F 58.3 °F 30.00 in SW 8.0 mph 19.0 mph 53% 0.00 in
12:04 77.4 °F 60.0 °F 30.00 in SW 7.0 mph 13.0 mph 55% 0.00 in
12:09 76.9 °F 58.5 °F 30.00 in SW 12.0 mph 17.0 mph 53% 0.00 in
12:14 76.6 °F 59.7 °F 30.00 in South 13.0 mph 17.0 mph 56% 0.00 in
12:19 76.7 °F 61.8 °F 30.00 in WSW 9.0 mph 18.0 mph 60% 0.00 in
12:24 76.3 °F 57.9 °F 30.00 in WSW 9.0 mph 19.0 mph 53% 0.00 in
12:30 76.6 °F 61.2 °F 30.00 in WSW 9.0 mph 19.0 mph 59% 0.00 in
12:35 77.0 °F 60.6 °F 30.00 in West 9.0 mph 17.0 mph 57% 0.00 in
12:40 76.9 °F 60.5 °F 30.00 in South 10.0 mph 18.0 mph 57% 0.00 in
12:45 76.9 °F 59.5 °F 30.00 in SW 12.0 mph 15.0 mph 55% 0.00 in
12:49 77.8 °F 57.7 °F 30.00 in SW 8.0 mph 20.0 mph 50% 0.00 in
12:54 77.1 °F 59.2 °F 30.00 in SW 9.0 mph 20.0 mph 54% 0.00 in
12:59 77.2 °F 58.7 °F 30.00 in WSW 10.0 mph 17.0 mph 53% 0.00 in
13:04 77.2 °F 58.7 °F 30.00 in WSW 9.0 mph 17.0 mph 53% 0.00 in
13:09 76.8 °F 58.4 °F 30.00 in WSW 23.0 mph 23.0 mph 53% 0.00 in
13:14 77.3 °F 57.8 °F 30.00 in SW 9.0 mph 23.0 mph 51% 0.00 in
13:20 77.7 °F 58.7 °F 30.00 in West 4.0 mph 14.0 mph 52% 0.00 in
13:24 77.2 °F 57.7 °F 30.00 in WSW 8.0 mph 17.0 mph 51% 0.00 in
13:30 77.1 °F 57.0 °F 30.00 in West 11.0 mph 15.0 mph 50% 0.00 in
13:34 77.3 °F 59.9 °F 30.00 in SW 12.0 mph 21.0 mph 55% 0.00 in
13:39 77.7 °F 59.2 °F 29.99 in South 16.0 mph 21.0 mph 53% 0.00 in
13:44 77.2 °F 58.2 °F 29.99 in West 9.0 mph 22.0 mph 52% 0.00 in
13:50 77.4 °F 58.9 °F 30.00 in SW 5.0 mph 17.0 mph 53% 0.00 in
13:54 77.3 °F 57.8 °F 29.99 in WSW 9.0 mph 17.0 mph 51% 0.00 in
14:00 77.2 °F 58.2 °F 29.99 in WSW 10.0 mph 19.0 mph 52% 0.00 in
14:05 77.0 °F 58.6 °F 29.99 in SW 11.0 mph 21.0 mph 53% 0.00 in
14:10 77.2 °F 58.7 °F 29.99 in SW 10.0 mph 22.0 mph 53% 0.00 in
14:15 77.6 °F 58.6 °F 29.99 in WSW 9.0 mph 22.0 mph 52% 0.00 in
14:19 78.3 °F 58.1 °F 29.99 in WSW 9.0 mph 24.0 mph 50% 0.00 in
14:24 77.5 °F 57.9 °F 29.99 in WSW 10.0 mph 20.0 mph 51% 0.00 in
14:29 77.1 °F 55.9 °F 29.99 in WSW 8.0 mph 24.0 mph 48% 0.00 in
14:34 77.4 °F 58.4 °F 29.99 in SW 14.0 mph 18.0 mph 52% 0.00 in
14:39 76.7 °F 57.7 °F 29.99 in WSW 11.0 mph 24.0 mph 52% 0.00 in
14:44 76.6 °F 57.7 °F 29.99 in West 11.0 mph 24.0 mph 52% 0.00 in
14:49 76.9 °F 58.5 °F 29.99 in WSW 11.0 mph 24.0 mph 53% 0.00 in
14:55 77.5 °F 59.0 °F 29.99 in WSW 10.0 mph 20.0 mph 53% 0.00 in
14:59 77.5 °F 58.5 °F 29.99 in WSW 10.0 mph 20.0 mph 52% 0.00 in
15:04 77.5 °F 58.5 °F 29.99 in WSW 10.0 mph 20.0 mph 52% 0.00 in
15:10 77.2 °F 58.2 °F 29.99 in WSW 8.0 mph 20.0 mph 52% 0.00 in
15:14 77.6 °F 57.5 °F 29.99 in WSW 11.0 mph 20.0 mph 50% 0.00 in
15:19 77.5 °F 57.9 °F 29.99 in WSW 8.0 mph 20.0 mph 51% 0.00 in
15:24 77.4 °F 57.9 °F 29.99 in SSW 8.0 mph 17.0 mph 51% 0.00 in
15:29 77.4 °F 57.9 °F 29.98 in West 4.0 mph 17.0 mph 51% 0.00 in
15:34 77.4 °F 57.3 °F 29.98 in SW 9.0 mph 18.0 mph 50% 0.00 in
15:39 77.5 °F 56.8 °F 29.98 in SSW 19.0 mph 19.0 mph 49% 0.00 in
15:44 77.5 °F 58.5 °F 29.98 in WSW 9.0 mph 19.0 mph 52% 0.00 in
15:49 78.5 °F 57.7 °F 29.98 in WSW 8.0 mph 19.0 mph 49% 0.00 in
15:54 77.7 °F 54.7 °F 29.98 in WSW 9.0 mph 19.0 mph 45% 0.00 in
15:59 77.7 °F 56.4 °F 29.98 in WSW 10.0 mph 19.0 mph 48% 0.00 in
16:05 77.4 °F 56.7 °F 29.98 in WSW 10.0 mph 18.0 mph 49% 0.00 in
16:10 77.3 °F 57.2 °F 29.98 in SW 10.0 mph 18.0 mph 50% 0.00 in
16:14 77.1 °F 55.9 °F 29.98 in WSW 10.0 mph 19.0 mph 48% 0.00 in
16:19 76.9 °F 55.7 °F 29.98 in SW 12.0 mph 21.0 mph 48% 0.00 in
16:24 76.7 °F 56.7 °F 29.98 in WSW 5.0 mph 21.0 mph 50% 0.00 in
16:29 77.6 °F 56.9 °F 29.98 in SW 14.0 mph 21.0 mph 49% 0.00 in
16:34 77.9 °F 57.8 °F 29.98 in SW 18.0 mph 18.0 mph 50% 0.00 in
16:39 77.4 °F 56.2 °F 29.97 in WSW 13.0 mph 18.0 mph 48% 0.00 in
16:44 76.9 °F 55.7 °F 29.98 in NW 8.0 mph 19.0 mph 48% 0.00 in
16:49 76.7 °F 56.1 °F 29.97 in WSW 10.0 mph 19.0 mph 49% 0.00 in
16:54 76.9 °F 56.3 °F 29.97 in WSW 10.0 mph 19.0 mph 49% 0.00 in
16:59 77.4 °F 56.2 °F 29.97 in SW 12.0 mph 13.0 mph 48% 0.00 in
17:04 77.1 °F 57.0 °F 29.97 in WSW 8.0 mph 15.0 mph 50% 0.00 in
17:10 76.9 °F 56.8 °F 29.97 in WSW 9.0 mph 16.0 mph 50% 0.00 in
17:14 76.8 °F 56.2 °F 29.97 in WSW 10.0 mph 21.0 mph 49% 0.00 in
17:19 76.4 °F 57.5 °F 29.97 in WSW 9.0 mph 21.0 mph 52% 0.00 in
17:24 76.8 °F 56.8 °F 29.97 in WSW 8.0 mph 18.0 mph 50% 0.00 in
17:29 76.5 °F 56.5 °F 29.97 in WSW 9.0 mph 18.0 mph 50% 0.00 in
17:35 76.4 °F 55.8 °F 29.97 in WSW 10.0 mph 20.0 mph 49% 0.00 in
17:40 76.0 °F 56.0 °F 29.97 in WSW 10.0 mph 20.0 mph 50% 0.00 in
17:45 75.8 °F 56.9 °F 29.97 in WSW 10.0 mph 19.0 mph 52% 0.00 in
17:49 76.1 °F 56.7 °F 29.97 in SW 15.0 mph 19.0 mph 51% 0.00 in
17:54 75.9 °F 56.5 °F 29.97 in WSW 11.0 mph 22.0 mph 51% 0.00 in
17:59 75.8 °F 56.9 °F 29.97 in West 7.0 mph 18.0 mph 52% 0.00 in
18:04 76.1 °F 56.7 °F 29.97 in WSW 8.0 mph 16.0 mph 51% 0.00 in
18:09 75.9 °F 57.5 °F 29.96 in SW 5.0 mph 18.0 mph 53% 0.00 in
18:14 76.0 °F 56.6 °F 29.97 in SSW 8.0 mph 16.0 mph 51% 0.00 in
18:19 75.6 °F 56.2 °F 29.97 in WSW 8.0 mph 19.0 mph 51% 0.00 in
18:24 75.3 °F 56.5 °F 29.96 in WSW 8.0 mph 19.0 mph 52% 0.00 in
18:29 75.2 °F 56.9 °F 29.97 in WSW 7.0 mph 19.0 mph 53% 0.00 in
18:35 75.1 °F 56.3 °F 29.97 in SW 14.0 mph 15.0 mph 52% 0.00 in
18:39 74.9 °F 56.6 °F 29.97 in SW 9.0 mph 17.0 mph 53% 0.00 in
18:45 74.7 °F 55.4 °F 29.96 in West 11.0 mph 16.0 mph 51% 0.00 in
18:49 74.6 °F 55.3 °F 29.96 in WSW 9.0 mph 18.0 mph 51% 0.00 in
18:54 74.6 °F 55.8 °F 29.96 in WSW 9.0 mph 18.0 mph 52% 0.00 in
18:59 74.7 °F 55.9 °F 29.96 in SSW 7.0 mph 14.0 mph 52% 0.00 in
19:04 74.7 °F 55.4 °F 29.96 in WSW 10.0 mph 16.0 mph 51% 0.00 in
19:09 74.8 °F 56.0 °F 29.96 in SSW 7.0 mph 13.0 mph 52% 0.00 in
19:14 74.5 °F 54.6 °F 29.96 in SW 8.0 mph 20.0 mph 50% 0.00 in
19:19 74.4 °F 55.1 °F 29.96 in SW 8.0 mph 20.0 mph 51% 0.00 in
19:24 74.4 °F 55.1 °F 29.96 in WSW 7.0 mph 16.0 mph 51% 0.00 in
19:29 74.4 °F 55.1 °F 29.96 in SW 8.0 mph 15.0 mph 51% 0.00 in
19:34 74.1 °F 55.3 °F 29.96 in SW 8.0 mph 16.0 mph 52% 0.00 in
19:39 73.9 °F 55.7 °F 29.96 in SW 5.0 mph 16.0 mph 53% 0.00 in
19:44 73.7 °F 56.0 °F 29.96 in WSW 7.0 mph 16.0 mph 54% 0.00 in
19:49 73.4 °F 56.2 °F 29.96 in WSW 6.0 mph 13.0 mph 55% 0.00 in
19:54 73.3 °F 56.7 °F 29.96 in West 7.0 mph 12.0 mph 56% 0.00 in
20:04 73.0 °F 57.3 °F 29.95 in SW 5.0 mph 12.0 mph 58% 0.00 in
20:09 72.9 °F 57.3 °F 29.95 in SW 8.0 mph 10.0 mph 58% 0.00 in
20:14 72.6 °F 57.9 °F 29.95 in SW 5.0 mph 11.0 mph 60% 0.00 in
20:19 72.4 °F 57.7 °F 29.95 in SW 6.0 mph 11.0 mph 60% 0.00 in
20:24 72.4 °F 57.7 °F 29.95 in SW 6.0 mph 11.0 mph 60% 0.00 in
20:29 72.3 °F 58.1 °F 29.95 in SW 6.0 mph 11.0 mph 61% 0.00 in
20:35 72.2 °F 58.5 °F 29.95 in SSE 2.0 mph 11.0 mph 62% 0.00 in
20:39 72.1 °F 58.4 °F 29.95 in West 5.0 mph 11.0 mph 62% 0.00 in
20:45 71.9 °F 58.6 °F 29.95 in SW 4.0 mph 9.0 mph 63% 0.00 in
20:49 71.8 °F 59.0 °F 29.95 in WSW 5.0 mph 11.0 mph 64% 0.00 in
20:54 71.5 °F 58.7 °F 29.95 in SW 9.0 mph 10.0 mph 64% 0.00 in
20:59 71.5 °F 59.1 °F 29.95 in WSW 6.0 mph 12.0 mph 65% 0.00 in
21:04 71.4 °F 59.0 °F 29.95 in SW 5.0 mph 12.0 mph 65% 0.00 in
21:09 71.2 °F 59.3 °F 29.95 in WSW 6.0 mph 9.0 mph 66% 0.00 in
21:14 71.1 °F 59.6 °F 29.95 in SW 3.0 mph 7.0 mph 67% 0.00 in
21:19 70.9 °F 59.4 °F 29.95 in SW 4.0 mph 8.0 mph 67% 0.00 in
21:24 70.9 °F 59.4 °F 29.95 in SW 4.0 mph 11.0 mph 67% 0.00 in
21:29 71.0 °F 59.5 °F 29.96 in SW 6.0 mph 7.0 mph 67% 0.00 in
21:34 71.0 °F 59.5 °F 29.96 in SSW 6.0 mph 10.0 mph 67% 0.00 in
21:39 71.1 °F 59.6 °F 29.96 in WSW 3.0 mph 9.0 mph 67% 0.00 in
21:44 71.0 °F 59.5 °F 29.96 in WSW 3.0 mph 8.0 mph 67% 0.00 in
21:49 71.0 °F 59.5 °F 29.96 in WSW 4.0 mph 10.0 mph 67% 0.00 in
21:54 71.0 °F 59.5 °F 29.96 in SW 5.0 mph 10.0 mph 67% 0.00 in
21:59 71.0 °F 59.5 °F 29.96 in SW 5.0 mph 10.0 mph 67% 0.00 in
22:04 71.0 °F 59.5 °F 29.96 in SW 6.0 mph 10.0 mph 67% 0.00 in
22:09 70.9 °F 59.4 °F 29.96 in SW 4.0 mph 8.0 mph 67% 0.00 in
22:14 70.8 °F 59.3 °F 29.96 in WSW 4.0 mph 6.0 mph 67% 0.00 in
22:19 70.7 °F 59.2 °F 29.96 in WSW 3.0 mph 6.0 mph 67% 0.00 in
22:24 70.6 °F 59.5 °F 29.96 in WSW 4.0 mph 9.0 mph 68% 0.00 in
22:29 70.7 °F 59.2 °F 29.96 in South 3.0 mph 9.0 mph 67% 0.00 in
22:35 70.8 °F 59.3 °F 29.96 in SW 5.0 mph 9.0 mph 67% 0.00 in
22:39 70.7 °F 59.2 °F 29.96 in SW 3.0 mph 8.0 mph 67% 0.00 in
22:44 70.6 °F 59.1 °F 29.96 in West 3.0 mph 9.0 mph 67% 0.00 in
22:49 70.5 °F 59.0 °F 29.96 in WSW 3.0 mph 9.0 mph 67% 0.00 in
22:54 70.4 °F 59.3 °F 29.96 in WSW 3.0 mph 7.0 mph 68% 0.00 in
22:59 70.4 °F 59.3 °F 29.97 in WSW 3.0 mph 7.0 mph 68% 0.00 in
23:04 70.4 °F 59.3 °F 29.97 in SW 5.0 mph 11.0 mph 68% 0.00 in
23:09 70.4 °F 59.3 °F 29.97 in SW 5.0 mph 11.0 mph 68% 0.00 in
23:14 70.4 °F 59.3 °F 29.96 in SW 1.0 mph 7.0 mph 68% 0.00 in
23:19 70.4 °F 59.7 °F 29.96 in SW 4.0 mph 8.0 mph 69% 0.00 in
23:24 70.4 °F 59.7 °F 29.96 in SW 4.0 mph 9.0 mph 69% 0.00 in
23:29 70.2 °F 60.0 °F 29.97 in SSW 3.0 mph 5.0 mph 70% 0.00 in
23:34 70.0 °F 59.8 °F 29.97 in West 2.0 mph 9.0 mph 70% 0.00 in
23:39 69.9 °F 59.7 °F 29.97 in WSW 4.0 mph 7.0 mph 70% 0.00 in
23:44 70.0 °F 59.8 °F 29.97 in SW 4.0 mph 11.0 mph 70% 0.00 in
23:49 70.1 °F 59.9 °F 29.97 in SW 4.0 mph 11.0 mph 70% 0.00 in
23:54 70.2 °F 60.0 °F 29.96 in SW 4.0 mph 8.0 mph 70% 0.00 in
23:59 70.2 °F 60.0 °F 29.97 in SW 2.0 mph 7.0 mph 70% 0.00 in
Buffalo, New York, USA
Compliments of Weather Underground - 2.5 mb